Regional Weather Roundup
Issued by NWS Sterling, VA

Home | Current Version | Previous Version | Graphics & Text | Print | Product List | Glossary On
Versions: 1 2 3 4 5 6 7 8 9 10 11 12 13 14 15 16 17 18 19 20 21 22 23 24 25 26 27 28 29 30 31 32 33 34 35 36 37 38 39 40 41 42 43 44 45 46 47 48 49 50
000
ASUS41 KLWX 250210
RWRLWX

REGIONAL WEATHER ROUNDUP
NATIONAL WEATHER SERVICE BALTIMORE MD/WASHINGTON DC
1000 PM EDT SUN MAY 24 2015

Note: "FAIR" indicates few or no clouds below 12,000 feet
with no significant weather and/or obstructions to visibility.
 TC=TEMPERATURE CELSIUS

 * =Non NWS site. Station does not report precipitation (e.g. rain,
    snow, etc.), thunder, or fog.

DCZ001-MDZ009-015-VAZ040>042-051-053>054-250300-
WASHINGTON METRO

CITY           SKY/WX    TMP DP  RH WIND       PRES   REMARKS
WASHINGTON NAT PTCLDY    74  61  63 S8        30.27R
DULLES         PTCLDY    72  56  57 S7        30.26R
ANDREWS AFB    PTCLDY    69  61  75 S7        30.27R
FT BELVOIR     CLEAR     66  59  77 SE3       30.27R
QUANTICO       CLEAR     73  64  73 S6        30.28R
COLLEGE PARK*  PTCLDY    72  61  68 CALM      30.26R
LEESBURG*      CLEAR     73  59  60 S7        30.27R
MANASSAS*      CLEAR     70  57  64 S3        30.26R
GAITHERSBURG*  PTCLDY    72  54  53 SE6       30.31R

$$

MDZ006>007-011-014-250300-
BALTIMORE METRO

CITY           SKY/WX    TMP DP  RH WIND       PRES   REMARKS
BWI AIRPORT    MOCLDY    68  59  73 SE6       30.27R
MD SCIENCE CTR   N/A     71  59  65 MISG      30.29R
MARTIN STATE   PTCLDY    72  64  78 SE5       30.29R
ANNAPOLIS      CLEAR     69  59  70 S9        30.27R
FORT MEADE*    PTCLDY    66  59  77 SE3       30.29R

$$

MDZ012-015-019>023-250300-
MARYLAND EASTERN SHORE

CITY           SKY/WX    TMP DP  RH WIND       PRES   REMARKS
OCEAN CITY     CLEAR     64  53  67 SW10      30.32R
SALISBURY      CLEAR     61  52  72 E3        30.31R
BAY BRIDGE AP*   N/A    N/A N/A N/A SE8       30.28R
CAMBRIDGE*     CLEAR     70  59  68 S3        30.29R
EASTON*        CLEAR     70  60  70 S8        30.32S

$$

MDZ017>025-250300-
SOUTHERN MARYLAND

CITY           SKY/WX    TMP DP  RH WIND       PRES   REMARKS
PATUXENT RIVER CLEAR     68  58  70 S8        30.29R
ST INIGOES     CLEAR     68  60  75 SE7       30.29R
LEONARDTOWN*   CLEAR     68  57  68 S3        30.30R

$$

MDZ003>005-250300-
NORTH CENTRAL MARYLAND

CITY           SKY/WX    TMP DP  RH WIND       PRES   REMARKS
FREDERICK*     NOT AVBL
HAGERSTOWN APT PTCLDY    74  45  35 E6        30.24S
WESTMINSTER*   PTCLDY    72  54  53 SE5       30.28R

$$

MDZ501>502-250300-
WESTERN MARYLAND

CITY           SKY/WX    TMP DP  RH WIND       PRES   REMARKS
OAKLAND*       PTCLDY    63  52  67 SE5       30.31R
CUMBERLAND*    CLEAR     72  50  46 NW3       30.27R

$$

VAZ025>031-250300-
SHENANDOAH VALLEY

CITY           SKY/WX    TMP DP  RH WIND       PRES   REMARKS
WINCHESTER*    CLEAR     68  52  56 S5        30.25R
FRONT ROYAL*   FAIR      70  54  56 S3        30.24R
LURAY*         FAIR      66  57  72 S3        30.26R
NEW MARKET*    FAIR      70  53  54 SW5       30.25R
STAUNTON*      CLEAR     71  52  50 S7        30.31R
WAYNESBORO*    FAIR      69  53  57 S6        30.30R

$$

WVZ021-048>050-054>055-250300-
EASTERN WEST VIRGINIA PANHANDLE

CITY           SKY/WX    TMP DP  RH WIND       PRES   REMARKS
MARTINSBURG    CLEAR     65  55  70 CALM      30.24S
PETERSBURG*    CLEAR     65  57  76 CALM      30.25R

$$

VAZ036>039-050-250300-
CENTRAL FOOTHILLS

CITY           SKY/WX    TMP DP  RH WIND       PRES   REMARKS
CHARLOTTESVILL CLEAR     67  55  65 S8        30.28R
CULPEPER*      FAIR      70  56  61 CALM      30.27R
ORANGE*        CLEAR     70  55  60 CALM      30.29S
GORDONSVILLE*  FAIR      64  57  76 CALM      30.28R
WARRENTON*     FAIR      72  58  63 S5        30.26R

$$

VAZ055>057-250300-
NORTH AND CENTRAL PIEDMONT

CITY           SKY/WX    TMP DP  RH WIND       PRES   REMARKS
FREDERICKSBRG* CLEAR     74  58  56 S8        30.27R
STAFFORD*      CLEAR     69  55  60 CALM      30.31R

$$

NCZ024-NYZ072-PAZ021-071-VAZ022-071-250300-
OTHER REGIONAL OBSERVATIONS

CITY           SKY/WX    TMP DP  RH WIND       PRES   REMARKS
NEW YORK CITY  CLOUDY    70  50  49 CALM      30.28R
PHILADELPHIA   MOCLDY    69  54  58 S7        30.28R
PITTSBURGH     PTCLDY    71  46  40 CALM      30.20S
ROANOKE        PTCLDY    71  52  50 SE3       30.32R
RICHMOND       PTCLDY    69  57  65 S5        30.30R
RALEIGH        PTCLDY    71  56  58 S5        30.32R

$$

ANZ530>537-250300-
MARINE OBSERVATIONS

STATION/POSITION TIME  TEMP    WIND        PRES
                       AIR SEA DIR/SP/G
                 (UTC) (F)     (DEG/KT/KT) (MB)
THOMAS PT LIGHT  0200   69 66  160/ 17/ 18 1025.7R
BALT KEY BRIDGE  0100   71     150/ 12/ 13 1024.2R
LEWISETTA        0100   69 71              1025.0F
SOLOMONS ISLAND  0100      70                N/A
PINEY POINT      0100          220/ 11/ 13   N/A

$$




USA.gov is the U.S. government's official web portal to all federal, state and local government web resources and services.